{"data":{"norad_id":43687,"intl_designator":"2018-086A","name":"COSMOS 2529 (757)","alt_names":[],"object_type":"PAYLOAD","status":"ACTIVE","operator":null,"country":"CIS","launch_date":"2018-11-03","launch_site_code":"PLMSC","launch_vehicle":null,"mission":null,"orbit_class":"UNKNOWN","rcs_meters":null,"size_class":null,"mass_kg":null,"dimensions":null,"purposes":["nav"],"wikipedia_slug":null,"has_3d_model":false,"image_url":null,"decayed_at":null,"tle_current":{"epoch":"2026-05-25T04:30:00.356832Z","epoch_age_seconds":65756,"freshness":"FRESH","line1":"1 43687U 18086A   26145.18750413  .00000047  00000+0  00000+0 0  9997","line2":"2 43687  64.2931 193.3710 0011484 256.0033 103.9404  2.13102011 58797","mean_motion":2.13102011,"eccentricity":0.0011484,"inclination_deg":64.2931,"raan_deg":193.371,"arg_perigee_deg":256.0033,"mean_anomaly_deg":103.9404,"bstar":0,"rev_number":5879,"period_min":675.73271281799,"perigee_km":19100.593135497,"apogee_km":19159.179963986,"semimajor_km":25508.023549741,"source":"CELESTRAK","updated_at":"2026-05-25T13:38:23.895400Z"}}}